Home   Weather   Knox   Past weeks

Flag for USA Past Weather in Knox, Indiana, USA — Yesterday and Last 2 Weeks

Now
39 °F

Fog.


Feels Like: 33 °F
Forecast: 36 / 41 °F
Wind: 9 mph from North

Location: Porter County Municipal Airport

Current Time: Jan 23, 2017 at 11:18:34 am

Latest Report: Jan 23, 2017 at 9:56 am


Visibility: 6 mi

Pressure: 29.77 "Hg

Humidity: 93%

Dew Point: 37 °F

Location of KnoxLocation

Past Weather in Knox — Graph

°F

Knox Temperature Yesterday

Maximum temperature yesterday: 47 °F (at 12:56 pm)
Minimum temperature yesterday: 36 °F (at 1:56 am)
Average temperature yesterday: 41 °F

High & Low Weather Summary for the Past Weeks

 TemperatureHumidityPressure
High62 °F (Jan 21, 1:56 pm)100% (Jan 11, 1:56 pm)30.77 "Hg (Jan 11, 1:56 pm)
Low12 °F (Jan 8, 9:56 am)41% (Jan 8, 1:56 pm)29.32 "Hg (Jan 10, 3:11 pm)
Average36 °F89%30.01 "Hg
* Reported Jan 8 9:56 am — Jan 23 9:56 am, Knox, Weather by CustomWeather, © 2017

Note: Actual official high and low records may vary slightly from our data, if they occured in-between our weather recording intervals... More about our weather records

Advertising

Knox Weather History for the Previous 24 Hours

Scroll right to see more
 ConditionsComfort  
Time TempWeatherWind HumidityBarometerVisibility
9:56 am
Mon, Jan 23
39 °FFog.9 mph93%29.77 "Hg6 mi
8:56 am39 °FFog.9 mph93%29.75 "Hg4 mi
7:56 am39 °FFog.13 mph93%29.72 "Hg5 mi
7:26 am38 °FFog.14 mph97%29.69 "Hg5 mi
6:56 am38 °FFog.14 mph97%29.71 "Hg4 mi
5:56 am38 °FFog.12 mph100%29.70 "Hg3 mi
4:56 am38 °FFog.13 mph100%29.69 "Hg3 mi
4:07 am39 °FFog.14 mph96%29.68 "Hg4 mi
3:44 am39 °FFog.10 mph96%29.68 "Hg1 mi
2:56 am39 °FFog.13 mph96%29.68 "Hg1 mi
1:56 am39 °FFog.13 mph100%29.66 "Hg1 mi
12:56 am40 °FFog.9 mph100%29.65 "Hg1 mi
11:56 pm
Sun, Jan 22
40 °FFog.9 mph100%29.66 "Hg1 mi
11:13 pm41 °FFog.6 mph100%29.65 "Hg1 mi
10:56 pm41 °FFog.6 mph100%29.67 "Hg0 mi
10:14 pm41 °FFog.7 mph100%29.66 "Hg0 mi
9:56 pm41 °FFog.9 mph100%29.67 "Hg1 mi
9:37 pm41 °FFog.8 mph100%29.65 "Hg1 mi
8:56 pm41 °FFog.9 mph100%29.66 "Hg1 mi
7:56 pm41 °FFog.9 mph100%29.66 "Hg1 mi
6:56 pm41 °FFog.10 mph100%29.62 "Hg1 mi
5:56 pm41 °FFog.10 mph100%29.63 "Hg1 mi
5:24 pm41 °FFog.12 mph100%29.62 "Hg1 mi
4:56 pm42 °FFog.12 mph96%29.62 "Hg1 mi
4:20 pm43 °FFog.13 mph93%29.61 "Hg5 mi
4:08 pm43 °FFog.9 mph93%29.60 "Hg5 mi
3:56 pm43 °FFog.8 mph93%29.62 "Hg6 mi
3:22 pm43 °FFog.14 mph93%29.59 "Hg4 mi
2:56 pm43 °FFog.13 mph93%29.60 "Hg6 mi
2:03 pm45 °FLow clouds.9 mph90%29.59 "Hg7 mi
1:56 pm45 °FFog.9 mph93%29.60 "Hg6 mi
1:04 pm47 °FFog.9 mph90%29.59 "Hg6 mi
12:56 pm47 °FFog.9 mph90%29.59 "Hg6 mi
12:08 pm46 °FFog.8 mph93%29.60 "Hg3 mi
11:56 am45 °FFog.8 mph97%29.61 "Hg1 mi
Weather by CustomWeather, © 2017

See weather overviewHow to use our weather pages